Time,TemperatureF,DewpointF,PressureIn,WindDirection,WindDirectionDegrees,WindSpeedMPH,WindSpeedGustMPH,Humidity,HourlyPrecipIn,Conditions,Clouds,dailyrainin,SoftwareType,DateUTC
2013-05-23 00:00:00,46.8,42.6,29.55,SSE,158,0.0,0.0,85,0.00,,,0.24,WUHU216HW,2013-05-23 07:00:00,
2013-05-23 00:05:00,46.8,42.6,29.55,SSE,158,0.0,0.0,85,0.00,,,0.24,WUHU216HW,2013-05-23 07:05:00,
2013-05-23 00:59:00,46.3,42.3,29.55,SSE,158,0.0,0.0,86,0.00,,,0.00,WUHU216HW,2013-05-23 07:59:00,
2013-05-23 01:00:00,46.3,42.3,29.55,SSE,158,0.0,0.0,86,0.00,,,0.00,WUHU216HW,2013-05-23 08:00:00,
2013-05-23 01:05:00,46.3,42.3,29.55,SSE,158,0.0,0.0,86,0.00,,,0.00,WUHU216HW,2013-05-23 08:05:00,
2013-05-23 01:59:00,46.4,43.1,29.57,SSE,158,0.0,0.0,88,0.00,,,0.00,WUHU216HW,2013-05-23 08:59:00,
2013-05-23 02:00:00,46.4,43.1,29.57,SSE,158,0.0,0.0,88,0.00,,,0.00,WUHU216HW,2013-05-23 09:00:00,
2013-05-23 02:05:00,46.4,43.1,29.57,SSE,158,0.0,0.0,88,0.00,,,0.00,WUHU216HW,2013-05-23 09:05:00,
2013-05-23 02:59:00,47.2,43.2,29.58,SSE,158,0.4,0.4,86,0.00,,,0.00,WUHU216HW,2013-05-23 09:59:00,
2013-05-23 03:00:00,47.2,43.2,29.58,SSE,158,0.4,0.4,86,0.00,,,0.00,WUHU216HW,2013-05-23 10:00:00,
2013-05-23 03:05:00,47.2,43.2,29.58,SSE,158,0.4,0.4,86,0.00,,,0.00,WUHU216HW,2013-05-23 10:05:00,
2013-05-23 03:59:00,46.8,43.2,29.58,South,180,0.0,0.0,87,0.02,,,0.00,WUHU216HW,2013-05-23 10:59:00,
2013-05-23 04:00:00,46.8,43.2,29.58,South,180,0.0,0.0,87,0.02,,,0.00,WUHU216HW,2013-05-23 11:00:00,
2013-05-23 04:05:00,46.8,43.2,29.58,South,180,0.0,0.0,87,0.02,,,0.00,WUHU216HW,2013-05-23 11:05:00,
2013-05-23 04:59:00,46.3,42.9,29.58,South,180,0.2,0.2,88,0.01,,,0.02,WUHU216HW,2013-05-23 11:59:00,
2013-05-23 05:00:00,46.3,42.9,29.58,South,180,0.2,0.2,88,0.01,,,0.02,WUHU216HW,2013-05-23 12:00:00,
2013-05-23 05:05:00,46.3,42.9,29.58,South,180,0.2,0.2,88,0.01,,,0.02,WUHU216HW,2013-05-23 12:05:00,
2013-05-23 05:59:00,46.4,43.7,29.58,SSE,158,0.0,0.0,90,0.02,,,0.04,WUHU216HW,2013-05-23 12:59:00,
2013-05-23 06:00:00,46.4,43.7,29.58,SSE,158,0.0,0.0,90,0.02,,,0.04,WUHU216HW,2013-05-23 13:00:00,
2013-05-23 06:05:00,46.4,43.7,29.58,SSE,158,0.0,0.0,90,0.02,,,0.04,WUHU216HW,2013-05-23 13:05:00,
2013-05-23 06:59:00,47.0,44.3,29.60,SSE,158,0.4,0.4,90,0.00,,,0.06,WUHU216HW,2013-05-23 13:59:00,
2013-05-23 07:00:00,47.0,44.3,29.60,SSE,158,0.4,0.4,90,0.00,,,0.06,WUHU216HW,2013-05-23 14:00:00,
2013-05-23 07:05:00,47.0,44.3,29.60,SSE,158,0.4,0.4,90,0.00,,,0.06,WUHU216HW,2013-05-23 14:05:00,
2013-05-23 08:00:00,49.0,45.5,29.61,SSE,158,0.0,0.0,88,0.01,,,0.06,WUHU216HW,2013-05-23 15:00:00,
2013-05-23 08:05:00,49.3,45.9,29.61,SSE,156,0.7,1.8,88,0.01,,,0.07,WUHU216HW,2013-05-23 15:05:00,
2013-05-23 08:10:00,49.5,46.1,29.61,South,180,0.0,1.8,88,0.01,,,0.07,WUHU216HW,2013-05-23 15:10:00,
2013-05-23 08:15:00,49.7,45.9,29.61,South,180,3.4,3.4,87,0.01,,,0.07,WUHU216HW,2013-05-23 15:15:00,
2013-05-23 08:20:00,49.7,45.6,29.61,SSE,158,0.0,3.4,86,0.01,,,0.07,WUHU216HW,2013-05-23 15:20:00,
2013-05-23 08:25:00,49.7,45.6,29.61,SSE,158,0.0,3.4,86,0.01,,,0.07,WUHU216HW,2013-05-23 15:25:00,
2013-05-23 09:00:00,50.0,45.4,29.62,SSE,158,0.2,0.2,84,0.00,,,0.07,WUHU216HW,2013-05-23 16:00:00,
2013-05-23 09:05:00,50.0,45.4,29.62,SSE,158,0.2,0.2,84,0.00,,,0.07,WUHU216HW,2013-05-23 16:05:00,
2013-05-23 10:00:00,54.2,47.5,29.61,SSE,158,0.0,0.0,78,0.00,,,0.07,WUHU216HW,2013-05-23 17:00:00,
2013-05-23 10:05:00,54.4,46.6,29.61,WSW,248,1.8,3.4,75,0.00,,,0.07,WUHU216HW,2013-05-23 17:05:00,
2013-05-23 10:10:00,54.4,46.6,29.61,SSW,210,1.2,3.4,75,0.00,,,0.07,WUHU216HW,2013-05-23 17:10:00,
2013-05-23 10:15:00,54.7,47.6,29.61,NE,56,0.8,2.0,77,0.00,,,0.07,WUHU216HW,2013-05-23 17:15:00,
2013-05-23 10:20:00,55.4,48.3,29.60,SSE,158,1.3,1.8,77,0.00,,,0.07,WUHU216HW,2013-05-23 17:20:00,
2013-05-23 10:25:00,55.8,48.3,29.61,South,180,1.6,1.8,76,0.00,,,0.07,WUHU216HW,2013-05-23 17:25:00,
2013-05-23 10:30:00,56.0,48.5,29.61,NNW,338,0.3,2.5,76,0.00,,,0.07,WUHU216HW,2013-05-23 17:30:00,
2013-05-23 10:35:00,56.5,48.6,29.61,SSW,203,3.1,3.1,75,0.00,,,0.07,WUHU216HW,2013-05-23 17:35:00,
2013-05-23 10:40:00,56.7,47.1,29.61,WSW,240,2.3,4.0,70,0.00,,,0.07,WUHU216HW,2013-05-23 17:40:00,
2013-05-23 10:45:00,56.5,46.9,29.61,SSE,158,2.0,4.0,70,0.00,,,0.07,WUHU216HW,2013-05-23 17:45:00,
2013-05-23 10:50:00,56.5,46.9,29.61,South,180,1.3,2.9,70,0.00,,,0.07,WUHU216HW,2013-05-23 17:50:00,
2013-05-23 10:55:00,56.3,46.3,29.61,WSW,248,1.8,4.7,69,0.00,,,0.07,WUHU216HW,2013-05-23 17:55:00,
2013-05-23 11:00:00,56.5,46.4,29.61,WSW,242,0.9,4.7,69,0.00,,,0.07,WUHU216HW,2013-05-23 18:00:00,
2013-05-23 11:05:00,57.1,47.0,29.61,South,182,2.6,3.4,69,0.00,,,0.07,WUHU216HW,2013-05-23 18:05:00,
2013-05-23 11:10:00,57.6,47.1,29.61,West,270,2.5,3.4,68,0.00,,,0.07,WUHU216HW,2013-05-23 18:10:00,
2013-05-23 11:15:00,57.4,46.5,29.61,West,270,2.5,2.7,67,0.00,,,0.07,WUHU216HW,2013-05-23 18:15:00,
2013-05-23 12:00:00,60.8,46.5,29.60,SW,225,1.3,1.3,59,0.00,,,0.07,WUHU216HW,2013-05-23 19:00:00,
2013-05-23 12:05:00,60.8,46.5,29.60,SW,225,1.3,1.3,59,0.00,,,0.07,WUHU216HW,2013-05-23 19:05:00,
2013-05-23 13:00:00,55.1,46.9,29.61,SSW,203,3.8,3.8,74,0.01,,,0.07,WUHU216HW,2013-05-23 20:00:00,
2013-05-23 13:05:00,55.1,46.9,29.61,SSW,203,3.8,3.8,74,0.01,,,0.07,WUHU216HW,2013-05-23 20:05:00,
2013-05-23 14:00:00,54.4,46.3,29.62,SSE,158,4.3,4.3,74,0.01,,,0.07,WUHU216HW,2013-05-23 21:00:00,
2013-05-23 14:05:00,54.4,46.3,29.62,SSE,158,4.3,4.3,74,0.01,,,0.07,WUHU216HW,2013-05-23 21:05:00,
2013-05-23 15:00:00,52.9,46.3,29.63,SSE,158,5.6,5.6,78,0.00,,,0.09,WUHU216HW,2013-05-23 22:00:00,
2013-05-23 15:05:00,52.9,46.3,29.63,SSE,158,5.6,5.6,78,0.00,,,0.09,WUHU216HW,2013-05-23 22:05:00,
2013-05-23 16:00:00,52.0,45.1,29.64,SE,135,1.1,1.1,77,0.01,,,0.09,WUHU216HW,2013-05-23 23:00:00,
2013-05-23 16:05:00,52.0,45.1,29.64,SE,135,1.1,1.1,77,0.01,,,0.09,WUHU216HW,2013-05-23 23:05:00,
2013-05-23 17:00:00,53.3,45.9,29.63,ESE,113,0.0,0.0,76,0.01,,,0.10,WUHU216HW,2013-05-24 00:00:00,
2013-05-23 17:05:00,53.3,45.9,29.63,ESE,113,0.0,0.0,76,0.01,,,0.10,WUHU216HW,2013-05-24 00:05:00,
2013-05-23 17:24:00,53.8,46.1,29.63,ENE,68,0.0,0.0,75,0.01,,,0.11,WUHU216HW,2013-05-24 00:24:00,
2013-05-23 17:28:00,54.0,46.3,29.62,SSE,158,0.0,0.0,75,0.01,,,0.11,WUHU216HW,2013-05-24 00:28:00,
2013-05-23 17:29:00,54.0,46.3,29.62,SSE,154,0.8,1.3,75,0.01,,,0.11,WUHU216HW,2013-05-24 00:29:00,
2013-05-23 17:34:00,54.0,46.3,29.62,SSE,158,0.0,1.3,75,0.01,,,0.11,WUHU216HW,2013-05-24 00:34:00,
2013-05-23 18:00:00,53.6,45.9,29.62,SSE,158,0.0,0.0,75,0.00,,,0.11,WUHU216HW,2013-05-24 01:00:00,
2013-05-23 18:05:00,53.6,45.9,29.62,SSE,158,0.0,0.0,75,0.00,,,0.11,WUHU216HW,2013-05-24 01:05:00,
2013-05-23 19:00:00,53.8,46.1,29.61,NW,315,1.3,1.3,75,0.00,,,0.11,WUHU216HW,2013-05-24 02:00:00,
2013-05-23 19:05:00,53.8,46.1,29.61,NW,315,1.3,1.3,75,0.00,,,0.11,WUHU216HW,2013-05-24 02:05:00,
2013-05-23 20:00:00,52.9,45.2,29.61,NNE,23,0.2,0.2,75,0.00,,,0.11,WUHU216HW,2013-05-24 03:00:00,
2013-05-23 20:04:00,52.9,45.2,29.61,North,0,1.8,1.8,75,0.00,,,0.11,WUHU216HW,2013-05-24 03:04:00,
2013-05-23 20:05:00,52.9,45.2,29.61,North,0,1.8,1.8,75,0.00,,,0.11,WUHU216HW,2013-05-24 03:05:00,
2013-05-23 20:10:00,52.9,45.2,29.61,North,0,1.8,1.8,75,0.00,,,0.11,WUHU216HW,2013-05-24 03:10:00,
2013-05-23 21:00:00,51.8,45.2,29.61,NNW,338,0.0,0.0,78,0.00,,,0.11,WUHU216HW,2013-05-24 04:00:00,
2013-05-23 21:01:00,51.8,45.2,29.61,NNW,338,0.0,0.0,78,0.00,,,0.11,WUHU216HW,2013-05-24 04:01:00,
2013-05-23 21:06:00,51.8,45.2,29.61,NNW,338,0.0,0.0,78,0.00,,,0.11,WUHU216HW,2013-05-24 04:06:00,
2013-05-23 22:00:00,51.3,45.6,29.61,North,0,0.2,0.2,81,0.00,,,0.11,WUHU216HW,2013-05-24 05:00:00,
2013-05-23 22:05:00,51.3,45.6,29.61,North,0,0.2,0.2,81,0.00,,,0.11,WUHU216HW,2013-05-24 05:05:00,
2013-05-23 23:00:00,50.6,45.5,29.62,NNW,338,0.0,0.0,83,0.00,,,0.11,WUHU216HW,2013-05-24 06:00:00,
2013-05-23 23:05:00,50.6,45.5,29.62,NNW,338,0.0,0.0,83,0.00,,,0.11,WUHU216HW,2013-05-24 06:05:00,